Regional Weather Roundup
Issued by NWS Cleveland, OH

Home | Current Version | Previous Version | Text Only | Print | Product List | Glossary Off
Versions: 1 2 3 4 5 6 7 8 9 10 11 12 13 14 15 16 17 18 19 20 21 22 23 24 25 26 27 28 29 30 31 32 33 34 35 36 37 38 39 40 41 42 43 44 45 46 47 48 49 50

000
ASUS41 KCLE 101102
RWRCLE
OHIO REGIONAL WEATHER ROUNDUP
NATIONAL WEATHER SERVICE CLEVELAND, OH
700 AM EDT THU JUL 10 2014

NOTE: "FAIR" INDICATES FEW OR NO CLOUDS BELOW 12,000 FEET WITH NO
SIGNIFICANT WEATHER AND/OR OBSTRUCTIONS TO VISIBILITY.

OHZ001>008-015>018-024>027-034-035-043-044-101200-
   NORTHWEST OHIO

CITY           SKY/WX    TMP DP  RH WIND       PRES   REMARKS
DEFIANCE       CLEAR     57  53  86 NW5       30.10R
FINDLAY        PTCLDY    58  55  90 CALM      30.08R
TOLEDO EXPRESS CLEAR     57  53  86 NW5       30.09R
TOLEDO EXEC    CLEAR     59  55  87 NW7       30.09R
LIMA           PTCLDY    62  56  80 N5        30.09R
$$

OHZ009>014-019>023-028>033-038-089-101200-
   NORTHEAST OHIO

CITY           SKY/WX    TMP DP  RH WIND       PRES   REMARKS
CLE-HOPKINS    PTCLDY    62  58  86 CALM      30.10R
CLE-LAKEFRONT  PTCLDY    63  56  78 CALM      30.08R
CUY CO. ARPT   PTCLDY    61  57  88 E5        30.09
LORAIN-ELYRIA  PTCLDY    62  58  86 CALM      30.09R FOG
ASHTABULA      PTCLDY    56  53  90 E3        30.11R
AKRON-CANTON   PTCLDY    61  57  87 NE3       30.09R FOG
WOOSTER        CLEAR     57  55  94 CALM      30.10R FOG
MANSFIELD      CLEAR     58  58 100 CALM      30.10R FOG
YOUNGSTOWN     PTCLDY    56  55  97 E3        30.10R
$$

OHZ042-051>053-060>062-070>072-077>081-101200-
  SOUTHWEST OHIO

CITY           SKY/WX    TMP DP  RH WIND       PRES   REMARKS
CINC-COVINGTON MOCLDY    65  59  81 N5        30.07R
CINC-LUNKEN    PTCLDY    62  61  96 NE3       30.08R
HAMILTON       MOCLDY    62  61  96 CALM      30.08R
DAYTON         PTCLDY    60  57  89 N5        30.10R
WRIGHT-PAT AFB PTCLDY    59  58  94 CALM      30.09R
DAYTON GENERAL PTCLDY    62  59  90 NE6       30.07R
WILMINGTON     CLEAR     63  58  83 N5        30.08R
$$

OHZ036-037-039>041-045>050-054>059-063>069-073>076-082>088-101200-
  CENTRAL AND SOUTHEAST OHIO

CITY           SKY/WX    TMP DP  RH WIND       PRES   REMARKS
COLUMBUS       PTCLDY    64  60  87 N3        30.07R
OSU AIRPORT    CLEAR     61  58  90 CALM      30.08R
BOLTON FIELD   CLEAR     60  59  96 NW5       30.08R
RICKENBACK AFB PTCLDY    64  58  80 CALM      30.07R
NEWARK         PTCLDY    60  58  92 CALM      30.07R FOG
MARION         CLEAR     59  57  93 CALM      30.09R FOG
LANCASTER      MOCLDY    61  59  93 CALM      30.07R
ZANESVILLE     MOCLDY    61  58  90 N5        30.07R
NEW PHILLY     CLEAR     60  58  92 CALM      30.09R
$$


USA.gov is the U.S. government's official web portal to all federal, state and local government web resources and services.